Showing default

NEXTSAT-2, 56743

Orbit data source: Space-Track

NEXTSAT-2, 56743 is a payload satellite owned by KAIST (KR) in SSO that was launched on Thu, 25 May 2023 UTC via an NURI launch vehicle from the Naro Space Center, South Korea (NSC). Payload-class satellites include a variety of spacecraft equipped with specific instruments for various scientific and technological missions. These include communications satellites like Starlink; space stations such as the ISS; scientific satellites like the Hubble; Earth observation satellites from companies like Planet Labs, Umbra, and HawkEye 360; GPS; miniature CubeSats for education and research; and military/defense satellites.

Loading next visibility...
Identifier
56743, 2023-072A
Orbit
SSO
Country
Flag of KRKR / SKOR
Related business
Manufacturer
SatRec Initiative
Mission
Operational Civil Ast/Tech
Bus & Motor
NEXTSAT, Unknown motor
Mass
180 kg wet, 180 kg dry
Launch date (UTC)
2023-05-25 (3 years ago)
Launch vehicle
NURI
Launch site
Naro Space Center, South Korea (NSC)
Object type
Payload
Rocket body
Debris
Shape & HBR
Box + 1 Pan, 2.6 m
Radar Cross Section
3.727 m², Medium (>0.1 m² and < 1m²)

Expand to show TLE details & history
Last TLE update: 12 hours ago

TLE from 12 hours ago
0 NEXTSAT-2
1 56743U 23072A   26171.50974457  .00005638  00000-0  21017-3 0  9993
2 56743  97.5252   8.5270 0005954  23.2899 336.8609 15.27838476170100
Epoch: 2026-06-20T12:14Z
TLE epoch observation values (Epoch: 2026-06-20T12:14:01.930Z)
Latitude
-0.00002°
Longitude
-83.70438°
Altitude
481.616 km
Speed
7.627 km/s
True Right ascension
00h 34m 06s
True Declination
0° 00' 00"
Sunlit
Object was in daylight at epoch
Visualization orbit readout
Latitude
Unknown
Longitude
Unknown
Altitude
Unknown
Speed
Unknown
Apparent Right ascension
Unknown
Apparent Declination
Unknown
Sunlit
N/A
Visualization observer readout
Local Sidereal Time
10:58:23
Azimuth
Unknown
Elevation
Unknown
Doppler factor
Unknown
Orbital elements
Apogee altitude
483.319 km
Perigee altitude
475.153 km
Semi-major axis
6,857.373 km
Eccentricity
0.0006
Inclination
97.5252°
RAAN
8.527°
Arg. of periapsis
23.2899°
True anomaly
336.83407°
Mean anomaly
336.8609°
Eccentric anomaly
336.84749°
Mean motion
3.82214 °/min
Orbital period
94.19 mins
BSTAR
0.00021017
Loading maneuver chart data...
Computing Atmospheric mass density...
Loading historical data...
Loading historical data...
Loading historical data...
Loading historical data...
Loading historical data...
Loading historical data...
Loading historical data...

Documentation

Showing up to 5 results
|